Barksdale AFB, LA

7:20 PM CDT on July 25, 2017 (GMT -0500)
Barksdale Air Force Base

Weather History for KBAD - March, 2013

Change the Weather History Date:

Wednesday, March 27, 2013

  Actual Average Record
Temperature  
Mean Temperature 47 °F -  
Max Temperature 65 °F 68 °F 84 °F (2012)
Min Temperature 29 °F 49 °F 29 °F (2013)
Degree Days  
Heating Degree Days 18    
Moisture  
Dew Point 29 °F    
Average Humidity 54    
Maximum Humidity 90    
Minimum Humidity 25    
Precipitation  
Precipitation 0.00 in - - ()
Sea Level Pressure  
Sea Level Pressure 30.33 in    
Wind  
Wind Speed 4 mph (SE)    
Max Wind Speed 14 mph    
Max Gust Speed 16 mph    
Visibility 10 miles    
Events      
Averages and records for this station are not official NWS values.
T = Trace of Precipitation, MM = Missing Value Source: NWS Daily Summary

Daily Weather History Graph

Daily Weather History Graph

Search for Another Location

Airport or City:

Trip Planner

Search our weather history database for the weather conditions in past years. The results will help you decide how hot, cold, wet, or windy it might be!

Date:

Astronomy

Mar. 27, 2013 Rise Set
Actual Time 7:08 AM CDT 7:31 PM CDT
Civil Twilight 6:44 AM CDT 7:55 PM CDT
Nautical Twilight 6:15 AM CDT 8:24 PM CDT
Astronomical Twilight 5:46 AM CDT 8:54 PM CDT
Moon 8:10 PM CDT (3/27) 7:03 AM CDT (3/27)
Length of Visible Light 13h 11m
Length of Day
12h 22m
Full, 100% of the Moon is Illuminated
Mar 27
Full
Apr 2
Last Quarter
Apr 10
New
Apr 18
First Quarter
Apr 25
Full

Hourly Weather History & Observations

Time (CDT) Temp. Windchill Dew Point Humidity Pressure Visibility Wind Dir Wind Speed Gust Speed Precip Events Conditions
12:58 AM 34.0 °F - 27.3 °F 77% 30.38 in 10.0 mi Calm Calm - N/A   Clear
1:58 AM 32.5 °F - 27.0 °F 80% 30.38 in 10.0 mi East 1.2 mph - N/A   Clear
2:58 AM 31.6 °F - 26.8 °F 82% 30.36 in 10.0 mi Calm Calm - N/A   Clear
3:58 AM 31.1 °F - 26.6 °F 83% 30.35 in 10.0 mi Calm Calm - N/A   Clear
4:58 AM 30.2 °F 26.7 °F 26.4 °F 86% 30.35 in 10.0 mi SE 3.5 mph - N/A   Clear
5:58 AM 29.1 °F - 25.9 °F 88% 30.36 in 10.0 mi ESE 1.2 mph - N/A   Clear
6:58 AM 30.7 °F 26.0 °F 28.2 °F 90% 30.38 in 10.0 mi SE 4.6 mph - N/A   Clear
7:58 AM 32.2 °F 26.7 °F 26.8 °F 80% 30.40 in 10.0 mi SSE 5.8 mph - N/A   Clear
8:58 AM 41.4 °F 34.0 °F 31.3 °F 67% 30.41 in 10.0 mi SSE 13.8 mph - N/A   Clear
9:58 AM 47.1 °F - 30.6 °F 53% 30.43 in 10.0 mi South 11.5 mph - N/A   Clear
10:58 AM 52.2 °F - 29.1 °F 41% 30.43 in 10.0 mi South 10.4 mph - N/A   Clear
11:58 AM 55.4 °F - 26.4 °F 33% 30.41 in 10.0 mi SSE 11.5 mph - N/A   Clear
12:58 PM 57.9 °F - 28.2 °F 32% 30.38 in 10.0 mi SSE 5.8 mph - N/A   Clear
1:58 PM 59.7 °F - 28.6 °F 31% 30.34 in 10.0 mi South 8.1 mph 16.1 mph N/A   Clear
2:58 PM 62.1 °F - 28.8 °F 28% 30.31 in 10.0 mi South 8.1 mph - N/A   Clear
3:58 PM 64.6 °F - 28.9 °F 26% 30.27 in 10.0 mi SE 6.9 mph - N/A   Clear
4:58 PM 65.3 °F - 28.4 °F 25% 30.25 in 10.0 mi SE 3.5 mph - N/A   Clear
5:58 PM 65.1 °F - 28.8 °F 26% 30.23 in 10.0 mi SE 10.4 mph - N/A   Clear
6:58 PM 62.2 °F - 29.1 °F 29% 30.21 in 10.0 mi SE 8.1 mph - N/A   Clear
7:58 PM 53.2 °F - 29.3 °F 40% 30.21 in 10.0 mi SE 6.9 mph - N/A   Clear
8:58 PM 50.5 °F - 31.1 °F 47% 30.22 in 10.0 mi ESE 6.9 mph - N/A   Clear
9:58 PM 50.9 °F - 30.2 °F 45% 30.24 in 10.0 mi ESE 4.6 mph - N/A   Clear
10:58 PM 48.4 °F - 30.4 °F 50% 30.25 in 10.0 mi SE 6.9 mph - N/A   Clear
11:58 PM 45.3 °F 41.1 °F 32.4 °F 61% 30.26 in 10.0 mi SSE 8.1 mph - N/A   Clear